Back to catalog

STARLINK-33885

AliveCommunicationsVLEO
NORAD 63886·PAYLOAD·🇺🇸 United States

Launched May 10, 2025 from Vandenberg Space Force Base

Loading…

Next Passes (next 24 hours)

TLE

FreshSource: CelesTrak SupGP

Epoch: Sep 15, 2026, 03:16 UTC

1 63886C 25094Y   26258.13659722 -.00014883  00000+0 -51779-3 0  2584
2 63886  69.9986 115.2071 0003020 272.9332 327.2504 15.29582247    19

Track STARLINK-33885 in real time with AllMySat

Download on the App Store